| time (UTC) | temp F | wind direction | speed knots | gust knots | rain 1hr in | rain 24hr in | rain mn in | humidity % | barometer mb |
| 20260505005300 | 80 | 61 | 0.0 | 1.7 | 0.00 | 0.00 | 0.00 | 41 | 1011.3 |
| 20260505005228 | 80 | 61 | 0.0 | 1.7 | 0.00 | 0.00 | 0.00 | 41 | 1011.3 |
| 20260505004756 | 80 | 346 | 0.0 | 3.5 | 0.00 | 0.00 | 0.00 | 40 | 1011.1 |
| 20260505004724 | 80 | 346 | 0.0 | 3.5 | 0.00 | 0.00 | 0.00 | 40 | 1011.1 |
| 20260505004232 | 79 | 289 | 0.9 | 4.3 | 0.00 | 0.00 | 0.00 | 42 | 1011.2 |
| 20260505003740 | 79 | 193 | 0.9 | 4.3 | 0.00 | 0.00 | 0.00 | 39 | 1011.1 |
| 20260505003308 | 79 | 5 | 1.7 | 4.3 | 0.00 | 0.00 | 0.00 | 38 | 1011.0 |
| 20260505002723 | 79 | 85 | 1.7 | 3.5 | 0.00 | 0.00 | 0.00 | 39 | 1011.1 |
| 20260505002231 | 79 | 328 | 0.9 | 5.2 | 0.00 | 0.00 | 0.00 | 38 | 1011.2 |
| 20260505001731 | 79 | 313 | 2.6 | 5.2 | 0.00 | 0.00 | 0.00 | 37 | 1011.2 |
| 20260505001223 | 79 | 207 | 1.7 | 5.2 | 0.00 | 0.00 | 0.00 | 35 | 1011.1 |
| 20260505000731 | 79 | 277 | 1.7 | 3.5 | 0.00 | 0.00 | 0.00 | 34 | 1011.2 |
| 20260505000239 | 80 | 96 | 0.9 | 3.5 | 0.00 | 0.00 | 0.00 | 36 | 1011.2 |
| 20260504235726 | 80 | 155 | 1.7 | 4.3 | 0.00 | 0.00 | 0.00 | 34 | 1011.2 |
| 20260504235234 | 80 | 53 | 2.6 | 4.3 | 0.00 | 0.00 | 0.00 | 32 | 1011.2 |
| 20260504234722 | 80 | 42 | 1.7 | 4.3 | 0.00 | 0.00 | 0.00 | 31 | 1011.2 |
| 20260504234230 | 80 | 312 | 0.9 | 3.5 | 0.00 | 0.00 | 0.00 | 32 | 1011.4 |
| 20260504233738 | 79 | 86 | 1.7 | 7.8 | 0.00 | 0.00 | 0.00 | 32 | 1011.3 |
| 20260504233226 | 80 | 277 | 1.7 | 5.2 | 0.00 | 0.00 | 0.00 | 30 | 1011.3 |
| 20260504232733 | 80 | 157 | 0.9 | 7.0 | 0.00 | 0.00 | 0.00 | 33 | 1011.1 |
| 20260504232225 | 79 | 323 | 1.7 | 7.0 | 0.00 | 0.00 | 0.00 | 33 | 1011.2 |
| 20260504231733 | 80 | 297 | 1.7 | 4.3 | 0.00 | 0.00 | 0.00 | 34 | 1011.2 |
| 20260504231221 | 79 | 215 | 1.7 | 4.3 | 0.00 | 0.00 | 0.00 | 32 | 1011.4 |
| 20260504230729 | 79 | 145 | 0.9 | 6.1 | 0.00 | 0.00 | 0.00 | 30 | 1011.6 |
| 20260504230237 | 79 | 254 | 1.7 | 6.1 | 0.00 | 0.00 | 0.00 | 31 | 1011.8 |
| 20260504225724 | 79 | 165 | 2.6 | 6.1 | 0.00 | 0.00 | 0.00 | 31 | 1011.6 |
| 20260504225232 | 79 | 360 | 2.6 | 6.1 | 0.00 | 0.00 | 0.00 | 32 | 1011.7 |
| 20260504224740 | 79 | 298 | 0.9 | 6.1 | 0.00 | 0.00 | 0.00 | 33 | 1011.7 |
| 20260504224228 | 79 | 297 | 2.6 | 4.3 | 0.00 | 0.00 | 0.00 | 32 | 1011.8 |
| 20260504223740 | 79 | 237 | 1.7 | 5.2 | 0.00 | 0.00 | 0.00 | 32 | 1012.0 |
| 20260504223307 | 80 | 152 | 0.9 | 2.6 | 0.00 | 0.00 | 0.00 | 34 | 1011.9 |
| 20260504222723 | 79 | 262 | 0.9 | 7.0 | 0.00 | 0.00 | 0.00 | 33 | 1011.9 |
| 20260504222231 | 79 | 140 | 1.7 | 7.0 | 0.00 | 0.00 | 0.00 | 32 | 1012.0 |
| 20260504221739 | 79 | 219 | 1.7 | 4.3 | 0.00 | 0.00 | 0.00 | 34 | 1012.0 |
| 20260504221307 | 78 | 20 | 1.7 | 4.3 | 0.00 | 0.00 | 0.00 | 33 | 1012.1 |
| 20260504220804 | 78 | 271 | 1.7 | 3.5 | 0.00 | 0.00 | 0.00 | 34 | 1012.1 |
| 20260504220259 | 78 | 261 | 2.6 | 4.3 | 0.00 | 0.00 | 0.00 | 34 | 1012.1 |
| 20260504215735 | 78 | 284 | 0.9 | 4.3 | 0.00 | 0.00 | 0.00 | 35 | 1012.1 |
| 20260504215223 | 77 | 346 | 1.7 | 8.7 | 0.00 | 0.00 | 0.00 | 37 | 1012.2 |
| 20260504214731 | 77 | 311 | 4.3 | 8.7 | 0.00 | 0.00 | 0.00 | 35 | 1012.2 |
| 20260504214239 | 78 | 355 | 1.7 | 6.1 | 0.00 | 0.00 | 0.00 | 37 | 1012.3 |
| 20260504213727 | 77 | 184 | 0.9 | 6.1 | 0.00 | 0.00 | 0.00 | 38 | 1012.3 |
| 20260504213233 | 77 | 330 | 1.7 | 7.0 | 0.00 | 0.00 | 0.00 | 39 | 1012.3 |
| 20260504212724 | 76 | 334 | 2.6 | 7.0 | 0.00 | 0.00 | 0.00 | 39 | 1012.4 |
| 20260504212232 | 76 | 311 | 1.7 | 8.7 | 0.00 | 0.00 | 0.00 | 39 | 1012.5 |
| 20260504211739 | 75 | 270 | 5.2 | 8.7 | 0.00 | 0.00 | 0.00 | 38 | 1012.5 |
| 20260504211227 | 75 | 284 | 2.6 | 7.0 | 0.00 | 0.00 | 0.00 | 39 | 1012.5 |
| 20260504210755 | 75 | 270 | 1.7 | 8.7 | 0.00 | 0.00 | 0.00 | 38 | 1012.5 |
| 20260504210723 | 75 | 270 | 1.7 | 8.7 | 0.00 | 0.00 | 0.00 | 38 | 1012.5 |
| 20260504210311 | 75 | 337 | 2.6 | 6.1 | 0.00 | 0.00 | 0.00 | 41 | 1012.5 |
| 20260504210239 | 75 | 337 | 2.6 | 6.1 | 0.00 | 0.00 | 0.00 | 41 | 1012.5 |
| 20260504205726 | 75 | 263 | 1.7 | 7.0 | 0.00 | 0.00 | 0.00 | 41 | 1012.5 |
| 20260504205234 | 76 | 239 | 2.6 | 7.0 | 0.00 | 0.00 | 0.00 | 41 | 1012.5 |
| 20260504204722 | 75 | 22 | 0.9 | 8.7 | 0.00 | 0.00 | 0.00 | 45 | 1012.5 |
| 20260504204230 | 75 | 243 | 3.5 | 8.7 | 0.00 | 0.00 | 0.00 | 42 | 1012.5 |
| 20260504203737 | 75 | 303 | 0.9 | 4.3 | 0.00 | 0.00 | 0.00 | 44 | 1012.5 |
| 20260504203305 | 75 | 144 | 0.9 | 6.1 | 0.00 | 0.00 | 0.00 | 42 | 1012.5 |
| 20260504203233 | 75 | 144 | 0.9 | 6.1 | 0.00 | 0.00 | 0.00 | 42 | 1012.5 |
| 20260504202724 | 74 | 277 | 2.6 | 6.1 | 0.00 | 0.00 | 0.00 | 41 | 1012.5 |
| 20260504202232 | 74 | 323 | 3.5 | 6.1 | 0.00 | 0.00 | 0.00 | 43 | 1012.4 |
| 20260504201740 | 74 | 104 | 0.9 | 7.8 | 0.00 | 0.00 | 0.00 | 44 | 1012.4 |
| 20260504201228 | 74 | 265 | 2.6 | 7.8 | 0.00 | 0.00 | 0.00 | 46 | 1012.4 |
| 20260504200756 | 73 | 329 | 5.2 | 7.8 | 0.00 | 0.00 | 0.00 | 45 | 1012.4 |
| 20260504200313 | 73 | 311 | 2.6 | 7.8 | 0.00 | 0.00 | 0.00 | 45 | 1012.5 |
| 20260504200241 | 73 | 311 | 2.6 | 7.8 | 0.00 | 0.00 | 0.00 | 45 | 1012.5 |
| 20260504195728 | 74 | 281 | 3.5 | 7.8 | 0.00 | 0.00 | 0.00 | 44 | 1012.5 |
| 20260504195236 | 75 | 259 | 2.6 | 7.0 | 0.00 | 0.00 | 0.00 | 44 | 1012.8 |
| 20260504194724 | 75 | 146 | 1.7 | 5.2 | 0.00 | 0.00 | 0.00 | 45 | 1012.8 |
| 20260504194232 | 74 | 250 | 0.9 | 5.2 | 0.00 | 0.00 | 0.00 | 44 | 1012.8 |
| 20260504193800 | 74 | 302 | 2.6 | 6.1 | 0.00 | 0.00 | 0.00 | 44 | 1012.6 |
| 20260504193237 | 74 | 300 | 2.6 | 6.1 | 0.00 | 0.00 | 0.00 | 44 | 1012.6 |
| 20260504192724 | 74 | 298 | 1.7 | 6.1 | 0.00 | 0.00 | 0.00 | 45 | 1012.7 |
| 20260504192236 | 73 | 202 | 1.7 | 5.2 | 0.00 | 0.00 | 0.00 | 45 | 1012.8 |
| 20260504191724 | 73 | 284 | 1.7 | 7.8 | 0.00 | 0.00 | 0.00 | 48 | 1012.9 |
| 20260504191232 | 73 | 263 | 3.5 | 7.8 | 0.00 | 0.00 | 0.00 | 47 | 1012.7 |
| 20260504190800 | 74 | 271 | 0.9 | 7.8 | 0.00 | 0.00 | 0.00 | 48 | 1012.7 |
| 20260504190236 | 74 | 339 | 0.9 | 6.1 | 0.00 | 0.00 | 0.00 | 48 | 1012.7 |
| 20260504185723 | 73 | 338 | 1.7 | 6.1 | 0.00 | 0.00 | 0.00 | 50 | 1012.8 |
| 20260504185231 | 72 | 285 | 1.7 | 7.0 | 0.00 | 0.00 | 0.00 | 51 | 1012.8 |
| 20260504184739 | 73 | 314 | 2.6 | 7.8 | 0.00 | 0.00 | 0.00 | 50 | 1012.9 |
| 20260504184227 | 73 | 355 | 0.9 | 4.3 | 0.00 | 0.00 | 0.00 | 48 | 1013.0 |
| 20260504183735 | 73 | 295 | 1.7 | 4.3 | 0.00 | 0.00 | 0.00 | 49 | 1012.8 |
| 20260504183227 | 73 | 213 | 0.9 | 3.5 | 0.00 | 0.00 | 0.00 | 47 | 1012.9 |
| 20260504182734 | 74 | 240 | 1.7 | 3.5 | 0.00 | 0.00 | 0.00 | 47 | 1012.8 |
| 20260504182222 | 73 | 53 | 0.9 | 3.5 | 0.00 | 0.00 | 0.00 | 48 | 1012.9 |
| 20260504181730 | 73 | 277 | 1.7 | 3.5 | 0.00 | 0.00 | 0.00 | 49 | 1012.8 |
| 20260504181258 | 72 | 285 | 1.7 | 3.5 | 0.00 | 0.00 | 0.00 | 49 | 1012.8 |
| 20260504180734 | 72 | 345 | 0.9 | 3.5 | 0.00 | 0.00 | 0.00 | 50 | 1012.8 |
| 20260504180301 | 72 | 314 | 0.9 | 3.5 | 0.00 | 0.00 | 0.00 | 51 | 1012.8 |
| 20260504175737 | 71 | 333 | 0.9 | 7.0 | 0.00 | 0.00 | 0.00 | 54 | 1012.7 |
| 20260504175225 | 71 | 263 | 4.3 | 7.0 | 0.00 | 0.00 | 0.00 | 50 | 1012.6 |
| 20260504174733 | 71 | 267 | 1.7 | 5.2 | 0.00 | 0.00 | 0.00 | 50 | 1012.7 |
| 20260504174240 | 71 | 251 | 2.6 | 5.2 | 0.00 | 0.00 | 0.00 | 50 | 1012.6 |
| 20260504173728 | 72 | 161 | 1.7 | 3.5 | 0.00 | 0.00 | 0.00 | 50 | 1012.5 |
| 20260504173256 | 71 | 251 | 0.9 | 2.6 | 0.00 | 0.00 | 0.00 | 51 | 1012.7 |
| 20260504172735 | 71 | 267 | 0.9 | 3.5 | 0.00 | 0.00 | 0.00 | 50 | 1012.6 |
| 20260504172223 | 71 | 27 | 1.7 | 3.5 | 0.00 | 0.00 | 0.00 | 50 | 1012.7 |
| 20260504171810 | 70 | 131 | 0.0 | 6.1 | 0.00 | 0.00 | 0.00 | 53 | 1012.6 |
| 20260504171227 | 70 | 277 | 2.6 | 6.1 | 0.00 | 0.00 | 0.00 | 52 | 1012.6 |
| 20260504170735 | 70 | 273 | 0.9 | 3.5 | 0.00 | 0.00 | 0.00 | 55 | 1012.6 |
| 20260504170223 | 69 | 299 | 0.9 | 2.6 | 0.00 | 0.00 | 0.00 | 55 | 1012.8 |
| 20260504160306 | 67 | 34 | 0.9 | 1.7 | 0.00 | 0.00 | 0.00 | 53 | 1012.2 |
| 20260504160235 | 67 | 34 | 0.9 | 1.7 | 0.00 | 0.00 | 0.00 | 53 | 1012.2 |
| 20260504150755 | 60 | 82 | 0.0 | 0.0 | 0.00 | 0.00 | 0.00 | 73 | 1011.8 |
| 20260504150232 | 59 | 82 | 0.0 | 1.7 | 0.00 | 0.00 | 0.00 | 75 | 1011.8 |
| 20260504141259 | 53 | 105 | 0.0 | 0.0 | 0.00 | 0.00 | 0.00 | 86 | 1011.4 |
| 20260504141227 | 53 | 105 | 0.0 | 0.0 | 0.00 | 0.00 | 0.00 | 86 | 1011.4 |
| 20260504140735 | 52 | 105 | 0.0 | 0.0 | 0.00 | 0.00 | 0.00 | 87 | 1011.4 |
| 20260504140222 | 51 | 105 | 0.0 | 0.0 | 0.00 | 0.00 | 0.00 | 88 | 1011.3 |
| 20260504130739 | 49 | 105 | 0.0 | 0.0 | 0.00 | 0.00 | 0.00 | 92 | 1011.0 |
| 20260504130307 | 49 | 105 | 0.0 | 0.0 | 0.00 | 0.00 | 0.00 | 92 | 1010.9 |
| 20260504120259 | 49 | 52 | 0.0 | 0.9 | 0.00 | 0.00 | 0.00 | 90 | 1010.8 |
| 20260504110237 | 50 | 52 | 0.0 | 0.0 | 0.00 | 0.00 | 0.00 | 90 | 1010.8 |
| 20260504100230 | 52 | 52 | 0.0 | 0.0 | 0.00 | 0.00 | 0.00 | 87 | 1010.5 |
| 20260504081737 | 55 | 32 | 0.0 | 0.0 | 0.00 | 0.00 | 0.00 | 82 | 1010.6 |
| 20260504081225 | 55 | 32 | 0.0 | 0.0 | 0.00 | 0.00 | 0.00 | 82 | 1010.5 |
| 20260504080733 | 55 | 32 | 0.0 | 0.0 | 0.00 | 0.00 | 0.00 | 82 | 1010.6 |
| 20260504080240 | 56 | 32 | 0.0 | 0.0 | 0.00 | 0.00 | 0.00 | 81 | 1010.5 |
| 20260504070237 | 58 | 83 | 0.0 | 0.0 | 0.00 | 0.00 | 0.00 | 76 | 1010.8 |
| 20260504060222 | 61 | 83 | 0.0 | 1.7 | 0.00 | 0.00 | 0.00 | 71 | 1010.7 |
| 20260504050303 | 65 | 83 | 0.0 | 0.0 | 0.00 | 0.00 | 0.00 | 61 | 1010.6 |
| 20260504045722 | 65 | 83 | 0.0 | 1.7 | 0.00 | 0.00 | 0.00 | 62 | 1010.7 |
| 20260504045230 | 66 | 83 | 0.0 | 1.7 | 0.00 | 0.00 | 0.00 | 60 | 1010.7 |
| 20260504044738 | 66 | 83 | 0.0 | 0.0 | 0.00 | 0.00 | 0.00 | 59 | 1010.6 |
| 20260504044226 | 67 | 83 | 0.0 | 0.9 | 0.00 | 0.00 | 0.00 | 59 | 1010.7 |
| 20260504043734 | 68 | 83 | 0.9 | 0.9 | 0.00 | 0.00 | 0.00 | 57 | 1010.7 |
| 20260504043222 | 68 | 309 | 0.0 | 0.0 | 0.00 | 0.00 | 0.00 | 55 | 1010.6 |
| 20260504042808 | 69 | 309 | 0.0 | 0.0 | 0.00 | 0.00 | 0.00 | 54 | 1010.6 |
| 20260504042224 | 69 | 309 | 0.0 | 1.7 | 0.00 | 0.00 | 0.00 | 54 | 1010.7 |
| 20260504041732 | 69 | 309 | 0.0 | 1.7 | 0.00 | 0.00 | 0.00 | 53 | 1010.7 |
| 20260504041259 | 69 | 259 | 0.0 | 1.7 | 0.00 | 0.00 | 0.00 | 53 | 1010.6 |
| 20260504040736 | 70 | 250 | 0.9 | 1.7 | 0.00 | 0.00 | 0.00 | 51 | 1010.5 |
| 20260504040224 | 70 | 291 | 0.9 | 2.6 | 0.00 | 0.00 | 0.00 | 51 | 1010.6 |
| 20260504035735 | 70 | 313 | 0.9 | 2.6 | 0.00 | 0.00 | 0.00 | 51 | 1010.6 |
| 20260504035223 | 70 | 292 | 0.9 | 1.7 | 0.00 | 0.00 | 0.00 | 50 | 1010.6 |
| 20260504034809 | 70 | 290 | 0.9 | 1.7 | 0.00 | 0.00 | 0.00 | 49 | 1010.6 |
| 20260504034226 | 71 | 270 | 0.9 | 1.7 | 0.00 | 0.00 | 0.00 | 49 | 1010.5 |
| 20260504033734 | 71 | 320 | 0.0 | 1.7 | 0.00 | 0.00 | 0.00 | 49 | 1010.4 |
| 20260504033301 | 71 | 306 | 0.0 | 1.7 | 0.00 | 0.00 | 0.00 | 48 | 1010.4 |
| 20260504032737 | 72 | 284 | 0.0 | 0.0 | 0.00 | 0.00 | 0.00 | 47 | 1010.4 |
| 20260504032304 | 72 | 298 | 0.0 | 1.7 | 0.00 | 0.00 | 0.00 | 47 | 1010.3 |
| 20260504031721 | 72 | 327 | 0.0 | 2.6 | 0.00 | 0.00 | 0.00 | 46 | 1010.5 |
| 20260504031229 | 73 | 330 | 0.9 | 3.5 | 0.00 | 0.00 | 0.00 | 46 | 1010.5 |
| 20260504030737 | 73 | 317 | 0.9 | 3.5 | 0.00 | 0.00 | 0.00 | 45 | 1010.4 |
| 20260504030224 | 73 | 312 | 0.9 | 4.3 | 0.00 | 0.00 | 0.00 | 44 | 1010.3 |
| 20260504025810 | 74 | 325 | 1.7 | 7.0 | 0.00 | 0.00 | 0.00 | 44 | 1010.3 |
| 20260504025227 | 74 | 327 | 3.5 | 7.0 | 0.00 | 0.00 | 0.00 | 43 | 1010.3 |
| 20260504024739 | 74 | 325 | 1.7 | 7.0 | 0.00 | 0.00 | 0.00 | 43 | 1010.2 |
| 20260504024227 | 75 | 297 | 1.7 | 7.0 | 0.00 | 0.00 | 0.00 | 42 | 1010.1 |
| 20260504023755 | 75 | 302 | 1.7 | 3.5 | 0.00 | 0.00 | 0.00 | 42 | 1010.2 |
| 20260504023723 | 75 | 302 | 1.7 | 3.5 | 0.00 | 0.00 | 0.00 | 42 | 1010.2 |
| 20260504023231 | 76 | 295 | 0.9 | 3.5 | 0.00 | 0.00 | 0.00 | 42 | 1010.3 |
| 20260504022758 | 76 | 340 | 0.9 | 3.5 | 0.00 | 0.00 | 0.00 | 42 | 1010.2 |
| 20260504022235 | 77 | 302 | 0.9 | 3.5 | 0.00 | 0.00 | 0.00 | 41 | 1010.2 |
| 20260504021723 | 77 | 300 | 1.7 | 7.0 | 0.00 | 0.00 | 0.00 | 40 | 1010.3 |
| 20260504021231 | 77 | 9 | 2.6 | 7.0 | 0.00 | 0.00 | 0.00 | 40 | 1010.4 |
| 20260504020739 | 77 | 317 | 2.6 | 8.7 | 0.00 | 0.00 | 0.00 | 40 | 1010.3 |
| 20260504020227 | 78 | 344 | 2.6 | 8.7 | 0.00 | 0.00 | 0.00 | 40 | 1010.3 |
| 20260504015734 | 79 | 304 | 3.5 | 8.7 | 0.00 | 0.00 | 0.00 | 39 | 1010.4 |
| 20260504015226 | 80 | 329 | 4.3 | 8.7 | 0.00 | 0.00 | 0.00 | 38 | 1010.5 |
| 20260504014754 | 81 | 343 | 0.9 | 5.2 | 0.00 | 0.00 | 0.00 | 39 | 1010.5 |
| 20260504014722 | 81 | 343 | 0.9 | 5.2 | 0.00 | 0.00 | 0.00 | 39 | 1010.5 |
| 20260504014306 | 81 | 336 | 0.9 | 6.1 | 0.00 | 0.00 | 0.00 | 39 | 1010.5 |
| 20260504013727 | 81 | 18 | 1.7 | 7.0 | 0.00 | 0.00 | 0.00 | 38 | 1010.5 |
| 20260504013234 | 81 | 325 | 2.6 | 7.0 | 0.00 | 0.00 | 0.00 | 38 | 1010.5 |
| 20260504012721 | 82 | 308 | 2.6 | 5.2 | 0.00 | 0.00 | 0.00 | 38 | 1010.6 |
| 20260504012229 | 82 | 5 | 0.9 | 6.1 | 0.00 | 0.00 | 0.00 | 38 | 1010.8 |
| 20260504011737 | 82 | 324 | 2.6 | 6.1 | 0.00 | 0.00 | 0.00 | 37 | 1010.8 |
| 20260504011305 | 82 | 329 | 0.9 | 5.2 | 0.00 | 0.00 | 0.00 | 38 | 1010.8 |
| 20260504010722 | 82 | 316 | 1.7 | 7.0 | 0.00 | 0.00 | 0.00 | 38 | 1010.8 |
| 20260504010230 | 82 | 339 | 1.7 | 7.0 | 0.00 | 0.00 | 0.00 | 38 | 1010.9 |
| 20260504005737 | 82 | 316 | 2.6 | 7.0 | 0.00 | 0.00 | 0.00 | 38 | 1010.9 |